Regional Weather Roundup
Issued by NWS

Home | Current Version | Previous Version | Graphics & Text | Print | Product List | Glossary On
Versions: 1 2 3 4 5 6 7 8 9 10 11 12 13 14 15 16 17 18 19 20 21 22 23 24 25 26 27 28 29 30 31 32 33 34 35 36 37 38 39 40 41 42 43 44 45 46 47 48 49 50
000
ASUS43 KIND 271359
RWRIN

WEATHER ROUNDUP FOR INDIANA
NATIONAL WEATHER SERVICE INDIANAPOLIS IN
1000 AM EDT WED AUG 27 2014

NOTE: "FAIR" INDICATES FEW OR NO CLOUDS BELOW 12,000 FEET WITH NO
SIGNIFICANT WEATHER AND/OR OBSTRUCTIONS TO VISIBILITY.

* - STATION DOES NOT REPORT WEATHER SUCH AS PRECIPITATION OR FOG.

+ - STATION NOT QUALITY CONTROLLED BY THE NATIONAL WEATHER SERVICE.
    USE DATA WITH CAUTION...ESPECIALLY DEWPOINT AND RELATIVE
    HUMIDITY OBSERVATIONS.

INZ001>003-010>013-019-020-271500-
NORTHWEST INDIANA

CITY           SKY/WX    TMP DP  RH WIND       PRES   REMARKS
GARY /AIRPORT/ MOSUNNY   73  63  68 NE7       30.15S
KNOX *+        SUNNY     70  63  78 N6        30.14S
MONTICELLO +   MOSUNNY   72  68  87 NE3       30.12S
VALPARAISO     SUNNY     71  61  70 NE8       30.15S

$$

LMZ046-743>745-271500-
SOUTHERN LAKE MICHIGAN

STATION/POSITION TIME  TEMP WIND        PRES
                       AIR  DIR/SP/G
                 (UTC) (F)  (DEG/KT/KT) (MB)
MICHIGAN CITY    1300   69   30/  9/ 12   N/A

$$

INZ004-005-014>016-021>024-271500-
NORTH CENTRAL INDIANA

CITY           SKY/WX    TMP DP  RH WIND       PRES   REMARKS
GOSHEN         SUNNY     70  62  76 N6        30.14R
PERU/GRISSOM   PTSUNNY   72  68  88 NE5       30.12F
SOUTH BEND     SUNNY     71  62  73 N7        30.15S
WARSAW +       MOSUNNY   68  63  83 NE5       30.14R

$$

INZ006>009-017-018-025>027-271500-
NORTHEAST INDIANA

CITY           SKY/WX    TMP DP  RH WIND       PRES   REMARKS
ANGOLA *+      SUNNY     70  63  78 VRB6      30.14S
FORT WAYNE     PTSUNNY   73  68  84 SW3       30.12F

$$

INZ028-029-035-036-043>045-051>053-271500-
WEST CENTRAL INDIANA

CITY           SKY/WX    TMP DP  RH WIND       PRES   REMARKS
GREENCASTLE +  SUNNY     75  70  83 N3        30.11F
LAFAYETTE      CLOUDY    70  70 100 E6        30.12R FOG
TERRE HAUTE    SUNNY     77  69  76 CALM      30.10S

$$

INZ030>032-037>040-046>048-054>057-064-065-271500-
CENTRAL INDIANA

CITY           SKY/WX    TMP DP  RH WIND       PRES   REMARKS
COLUMBUS       MOSUNNY   77  72  83 CALM      30.11S
FRANKFORT +    PTSUNNY   73  73 100 CALM      30.14R FOG
INDIANAPOLIS   MOSUNNY   77  70  79 NW5       30.10S
-EAGLE CREEK   MOSUNNY   77  66  68 N6        30.11S
KOKOMO *+      CLOUDY    70  68  94 NE7       30.12F
MT COMFORT *+  SUNNY     77  73  88 NE6       30.12S
SHELBYVILLE    MOSUNNY   77  71  82 N5        30.11R

$$

INZ033-034-041-042-049-050-058-059-271500-
EAST CENTRAL INDIANA

CITY           SKY/WX    TMP DP  RH WIND       PRES   REMARKS
MUNCIE         PTSUNNY   75  69  81 NE5       30.13R

$$

INZ060-061-067>069-081>083-085>088-271500-
SOUTHWEST INDIANA

CITY           SKY/WX    TMP DP  RH WIND       PRES   REMARKS
EVANSVILLE     SUNNY     83  72  69 CALM      30.10S

$$

INZ062-063-066-070>080-084-089>092-271500-
SOUTH CENTRAL AND SOUTHEAST INDIANA

CITY           SKY/WX    TMP DP  RH WIND       PRES   REMARKS
BLOOMINGTON    SUNNY     79  70  74 CALM      30.11S
SEYMOUR +      SUNNY     79  66  65 CALM      30.10  HAZE

$$




USA.gov is the U.S. government's official web portal to all federal, state and local government web resources and services.